VK4CWL-13 Weather Reports


Display with metric or nautical units.
time (UTC)temp
F
wind
direction
speed
MPH
gust
MPH
rain 1hr
in
rain 24hr
in
rain mn
in
humidity
%
barometer
mb
20260508105753 54 135 4.0 5.0 0.00 0.00 0.00 39 1020.7
20260508105251 55 146 5.0 6.0 0.00 0.00 0.00 39 1020.8
20260508104750 55 157 5.0 6.0 0.00 0.00 0.00 38 1020.7
20260508104248 55 157 4.0 6.0 0.00 0.00 0.00 38 1020.7
20260508103744 55 135 5.0 6.0 0.00 0.00 0.00 38 1020.5
20260508103242 55 180 5.0 6.0 0.00 0.00 0.00 38 1020.5
20260508102740 55 146 5.0 6.0 0.00 0.00 0.00 37 1020.5
20260508102239 55 180 3.0 5.0 0.00 0.00 0.00 37 1020.3
20260508101735 55 135 5.0 6.0 0.00 0.00 0.00 37 1020.2
20260508101233 56 157 4.0 6.0 0.00 0.00 0.00 36 1020.2
20260508100733 56 157 5.0 6.0 0.00 0.00 0.00 36 1020.2
20260508100230 56 146 4.0 5.0 0.00 0.00 0.00 36 1020.3
20260508095725 56 146 4.0 7.0 0.00 0.00 0.00 35 1020.2
20260508095223 56 135 5.0 6.0 0.00 0.00 0.00 35 1020.2
20260508094724 56 168 5.0 6.0 0.00 0.00 0.00 35 1020.2
20260508094221 57 168 5.0 6.0 0.00 0.00 0.00 34 1020.1
20260508093717 57 168 5.0 5.0 0.00 0.00 0.00 34 1020.2
20260508093217 57 157 4.0 4.0 0.00 0.00 0.00 33 1020.1
20260508092715 57 157 4.0 4.0 0.00 0.00 0.00 32 1020.0
20260508092213 58 157 4.0 4.0 0.00 0.00 0.00 32 1019.9
20260508091708 58 135 4.0 4.0 0.00 0.00 0.00 32 1019.8
20260508091206 58 146 4.0 5.0 0.00 0.00 0.00 31 1019.6
20260508090704 59 135 4.0 5.0 0.00 0.00 0.00 31 1019.6
20260508090202 59 157 4.0 6.0 0.00 0.00 0.00 30 1019.5
20260508085700 59 168 5.0 5.0 0.00 0.00 0.00 30 1019.5
20260508085157 60 157 5.0 5.0 0.00 0.00 0.00 30 1019.4
20260508084655 60 157 6.0 6.0 0.00 0.00 0.00 30 1019.3
20260508084154 60 168 4.0 6.0 0.00 0.00 0.00 29 1019.2
20260508083651 60 157 7.0 7.0 0.00 0.00 0.00 29 1019.0
20260508083149 61 135 6.0 8.0 0.00 0.00 0.00 29 1019.0
20260508082647 61 146 7.0 8.0 0.00 0.00 0.00 28 1018.9
20260508081640 62 157 5.0 6.0 0.00 0.00 0.00 28 1018.7
20260508081137 62 157 5.0 7.0 0.00 0.00 0.00 27 1018.7
20260508080635 62 180 7.0 8.0 0.00 0.00 0.00 27 1018.7
20260508080135 63 157 5.0 7.0 0.00 0.00 0.00 27 1018.6
20260508075632 63 157 6.0 7.0 0.00 0.00 0.00 26 1018.6
20260508075130 64 135 6.0 7.0 0.00 0.00 0.00 25 1018.4
20260508074628 65 135 5.0 5.0 0.00 0.00 0.00 24 1018.2
20260508074128 65 157 4.0 5.0 0.00 0.00 0.00 24 1018.1
20260508073624 66 157 2.0 3.0 0.00 0.00 0.00 24 1018.1
20260508073120 66 180 3.0 4.0 0.00 0.00 0.00 23 1018.0
20260508072618 67 180 2.0 6.0 0.00 0.00 0.00 23 1018.0
20260508072116 67 168 2.0 4.0 0.00 0.00 0.00 22 1017.9
20260508071615 68 157 0.0 5.0 0.00 0.00 0.00 22 1017.8
20260508071112 68 135 3.0 5.0 0.00 0.00 0.00 22 1017.6
20260508070611 69 146 4.0 6.0 0.00 0.00 0.00 21 1017.6
20260508070107 69 157 5.0 8.0 0.00 0.00 0.00 21 1017.5
20260508065606 70 135 9.0 10.0 0.00 0.00 0.00 20 1017.5
20260508065105 70 180 7.0 10.0 0.00 0.00 0.00 20 1017.4
20260508064601 70 157 10.0 10.0 0.00 0.00 0.00 20 1017.3
20260508064057 71 146 8.0 9.0 0.00 0.00 0.00 20 1017.5
20260508063557 71 168 7.0 11.0 0.00 0.00 0.00 20 1017.5
20260508063054 71 180 7.0 10.0 0.00 0.00 0.00 20 1017.4
20260508062552 71 135 9.0 12.0 0.00 0.00 0.00 19 1017.4
20260508062050 71 180 9.0 11.0 0.00 0.00 0.00 19 1017.3
20260508061546 71 135 7.0 11.0 0.00 0.00 0.00 20 1017.3
20260508061046 72 157 7.0 14.0 0.00 0.00 0.00 20 1017.3
20260508060542 72 157 7.0 11.0 0.00 0.00 0.00 19 1017.2
20260508060042 72 168 5.0 11.0 0.00 0.00 0.00 20 1017.3
20260508055538 72 135 6.0 12.0 0.00 0.00 0.00 20 1017.3
20260508055036 72 180 5.0 11.0 0.00 0.00 0.00 20 1017.3
20260508054532 72 135 8.0 11.0 0.00 0.00 0.00 20 1017.3
20260508054030 72 180 6.0 9.0 0.00 0.00 0.00 21 1017.4
20260508053529 72 180 6.0 8.0 0.00 0.00 0.00 21 1017.3
20260508053027 72 157 9.0 16.0 0.00 0.00 0.00 20 1017.3
20260508052525 72 135 10.0 12.0 0.00 0.00 0.00 19 1017.3
20260508052021 72 180 7.0 12.0 0.00 0.00 0.00 20 1017.1
20260508051521 72 135 8.0 13.0 0.00 0.00 0.00 19 1017.2
20260508051017 72 157 5.0 13.0 0.00 0.00 0.00 21 1017.4
20260508050515 72 135 11.0 13.0 0.00 0.00 0.00 19 1017.3
20260508050012 72 180 11.0 15.0 0.00 0.00 0.00 18 1017.3
20260508045509 72 180 11.0 12.0 0.00 0.00 0.00 20 1017.2
20260508045008 72 146 5.0 12.0 0.00 0.00 0.00 20 1017.3
20260508044505 72 168 12.0 12.0 0.00 0.00 0.00 20 1017.3
20260508044313 72 180 4.0 10.0 0.00 0.00 0.00 20 1017.3
20260508043814 72 180 5.0 11.0 0.00 0.00 0.00 20 1017.3
20260508043310 72 180 10.0 14.0 0.00 0.00 0.00 20 1017.4
20260508042808 71 135 14.0 14.0 0.00 0.00 0.00 19 1017.3
20260508042504 71 157 5.0 12.0 0.00 0.00 0.00 20 1017.4
20260508042002 71 135 11.0 16.0 0.00 0.00 0.00 19 1017.5
20260508041500 71 135 13.0 13.0 0.00 0.00 0.00 19 1017.4
20260508040958 71 180 7.0 12.0 0.00 0.00 0.00 20 1017.4
20260508040455 71 180 12.0 16.0 0.00 0.00 0.00 19 1017.4
20260508035954 71 135 11.0 14.0 0.00 0.00 0.00 20 1017.5
20260508035451 71 157 6.0 10.0 0.00 0.00 0.00 20 1017.6
20260508034446 71 146 13.0 13.0 0.00 0.00 0.00 19 1017.8
20260508034304 71 135 4.0 15.0 0.00 0.00 0.00 20 1017.9
20260508033801 70 168 11.0 11.0 0.00 0.00 0.00 20 1018.0
20260508033258 70 135 8.0 16.0 0.00 0.00 0.00 19 1018.0
20260508032756 70 157 9.0 14.0 0.00 0.00 0.00 20 1018.1
20260508032254 70 135 12.0 13.0 0.00 0.00 0.00 20 1018.2
20260508031752 70 157 10.0 15.0 0.00 0.00 0.00 19 1018.3
20260508031251 70 135 17.0 17.0 0.00 0.00 0.00 20 1018.5
20260508030748 70 157 14.0 15.0 0.00 0.00 0.00 20 1018.6
20260508030245 70 135 13.0 14.0 0.00 0.00 0.00 21 1018.6
20260508025743 69 135 6.0 15.0 0.00 0.00 0.00 21 1018.7
20260508025412 69 157 15.0 15.0 0.00 0.00 0.00 21 1018.8
20260508025238 69 135 6.0 13.0 0.00 0.00 0.00 22 1018.8
20260508024737 69 157 13.0 14.0 0.00 0.00 0.00 22 1018.9
20260508024233 69 135 8.0 17.0 0.00 0.00 0.00 22 1018.8
20260508023732 69 135 15.0 16.0 0.00 0.00 0.00 22 1018.9
20260508023621 69 146 5.0 15.0 0.00 0.00 0.00 24 1019.1
20260508023118 68 180 8.0 16.0 0.00 0.00 0.00 23 1019.1
20260508022836 68 135 16.0 16.0 0.00 0.00 0.00 23 1019.2
20260508022654 68 191 8.0 16.0 0.00 0.00 0.00 23 1019.2
20260508022402 68 135 16.0 16.0 0.00 0.00 0.00 23 1019.1
20260508022250 68 180 6.0 15.0 0.00 0.00 0.00 23 1019.1
20260508021758 68 135 15.0 17.0 0.00 0.00 0.00 23 1019.2
20260508021255 67 180 10.0 18.0 0.00 0.00 0.00 23 1019.4
20260508020752 67 157 11.0 20.0 0.00 0.00 0.00 24 1019.5
20260508020539 67 135 19.0 19.0 0.00 0.00 0.00 24 1019.5
20260508020237 67 157 9.0 18.0 0.00 0.00 0.00 24 1019.6
20260508020126 67 135 18.0 18.0 0.00 0.00 0.00 24 1019.5
20260508015814 67 157 10.0 14.0 0.00 0.00 0.00 25 1019.6
20260508015311 66 135 10.0 12.0 0.00 0.00 0.00 25 1019.9
20260508014810 66 168 10.0 20.0 0.00 0.00 0.00 24 1019.8
20260508014506 66 135 19.0 19.0 0.00 0.00 0.00 24 1020.0
20260508014106 66 135 10.0 20.0 0.00 0.00 0.00 24 1020.1
20260508013732 66 135 18.0 18.0 0.00 0.00 0.00 24 1020.2
20260508013539 66 135 9.0 15.0 0.00 0.00 0.00 25 1020.3
20260508013108 65 135 18.0 18.0 0.00 0.00 0.00 25 1020.2
20260508012833 65 135 9.0 15.0 0.00 0.00 0.00 26 1020.4
20260508012334 65 135 13.0 20.0 0.00 0.00 0.00 25 1020.5
20260508011830 65 135 16.0 19.0 0.00 0.00 0.00 25 1020.6
20260508011730 65 157 5.0 19.0 0.00 0.00 0.00 25 1020.7
20260508011556 65 168 15.0 19.0 0.00 0.00 0.00 25 1020.8
20260508011055 64 157 14.0 19.0 0.00 0.00 0.00 26 1020.7
20260508010552 64 135 12.0 21.0 0.00 0.00 0.00 27 1020.8
20260508010139 64 135 21.0 21.0 0.00 0.00 0.00 26 1020.9
20260508010007 64 157 10.0 20.0 0.00 0.00 0.00 26 1021.0
20260508005636 64 135 20.0 20.0 0.00 0.00 0.00 26 1020.8
20260508005514 64 168 10.0 20.0 0.00 0.00 0.00 26 1020.9
20260508005342 64 135 20.0 20.0 0.00 0.00 0.00 26 1021.0
20260508005158 63 157 9.0 18.0 0.00 0.00 0.00 27 1021.1
20260508004747 63 135 18.0 22.0 0.00 0.00 0.00 26 1021.0
20260508004244 63 135 17.0 23.0 0.00 0.00 0.00 26 1021.2
20260508003743 63 135 16.0 18.0 0.00 0.00 0.00 27 1021.2
20260508003244 63 135 16.0 18.0 0.00 0.00 0.00 27 1021.2
20260508002736 63 135 17.0 18.0 0.00 0.00 0.00 28 1021.2
20260508002130 62 135 17.0 19.0 0.00 0.00 0.00 28 1021.3
20260508001628 62 135 17.0 22.0 0.00 0.00 0.00 28 1021.3
20260508001126 62 157 16.0 21.0 0.00 0.00 0.00 28 1021.4
20260508000118 61 135 18.0 21.0 0.00 0.00 0.00 29 1021.5
20260507235615 61 135 16.0 19.0 0.00 0.00 0.00 28 1021.5
20260507235113 61 157 17.0 22.0 0.00 0.00 0.00 29 1021.5
20260507234611 61 146 15.0 18.0 0.00 0.00 0.00 29 1021.7
20260507234109 61 135 16.0 23.0 0.00 0.00 0.00 30 1021.6
20260507233606 61 135 20.0 21.0 0.00 0.00 0.00 29 1021.6
20260507233445 61 180 12.0 21.0 0.00 0.00 0.00 29 1021.5
20260507233333 61 180 20.0 20.0 0.00 0.00 0.00 29 1021.6
20260507233211 60 180 10.0 19.0 0.00 0.00 0.00 29 1021.5
20260507232748 60 157 20.0 26.0 0.00 0.00 0.00 29 1021.5
20260507232246 60 157 19.0 21.0 0.00 0.00 0.00 30 1021.6
20260507231744 60 135 17.0 24.0 0.00 0.00 0.00 30 1021.6
20260507231243 60 135 18.0 24.0 0.00 0.00 0.00 30 1021.6
20260507230740 60 180 21.0 24.0 0.00 0.00 0.00 31 1021.9
20260507230555 60 146 13.0 24.0 0.00 0.00 0.00 31 1021.8
20260507230422 60 157 24.0 24.0 0.00 0.00 0.00 30 1021.7
20260507230130 60 157 15.0 25.0 0.00 0.00 0.00 30 1021.5
20260507225738 60 157 24.0 24.0 0.00 0.00 0.00 31 1021.4
20260507225617 60 180 13.0 22.0 0.00 0.00 0.00 32 1021.6
20260507225513 60 157 22.0 22.0 0.00 0.00 0.00 32 1021.4
20260507225235 60 180 13.0 24.0 0.00 0.00 0.00 31 1021.5
20260507224941 60 135 24.0 24.0 0.00 0.00 0.00 31 1021.6
20260507224817 60 180 14.0 27.0 0.00 0.00 0.00 32 1021.6
20260507224456 60 146 24.0 27.0 0.00 0.00 0.00 32 1021.6
20260507224332 60 168 13.0 22.0 0.00 0.00 0.00 32 1021.6
20260507224121 60 191 22.0 22.0 0.00 0.00 0.00 32 1021.5
20260507224021 59 168 13.0 19.0 0.00 0.00 0.00 34 1021.5
20260507223517 60 168 16.0 18.0 0.00 0.00 0.00 34 1021.6
20260507223016 59 168 12.0 20.0 0.00 0.00 0.00 35 1021.7
20260507222804 59 135 20.0 21.0 0.00 0.00 0.00 35 1021.5
20260507222442 59 135 11.0 21.0 0.00 0.00 0.00 36 1021.5
20260507222250 59 157 20.0 21.0 0.00 0.00 0.00 37 1021.5
20260507222058 59 135 10.0 21.0 0.00 0.00 0.00 38 1021.4
20260507221957 59 135 21.0 21.0 0.00 0.00 0.00 38 1021.5
20260507221831 58 135 12.0 21.0 0.00 0.00 0.00 38 1021.5
20260507221328 58 135 16.0 20.0 0.00 0.00 0.00 38 1021.5
20260507220826 58 146 17.0 24.0 0.00 0.00 0.00 37 1021.4
20260507220324 58 157 20.0 21.0 0.00 0.00 0.00 38 1021.7
20260507215802 58 146 17.0 23.0 0.00 0.00 0.00 38 1021.5
20260507215259 58 135 21.0 21.0 0.00 0.00 0.00 39 1021.3
20260507214856 57 157 13.0 25.0 0.00 0.00 0.00 39 1021.3
20260507214734 57 168 25.0 26.0 0.00 0.00 0.00 39 1021.2
20260507214624 57 157 12.0 26.0 0.00 0.00 0.00 39 1021.2
20260507214418 57 180 20.0 26.0 0.00 0.00 0.00 40 1021.1
20260507213917 57 180 20.0 26.0 0.00 0.00 0.00 42 1021.1
20260507213745 57 180 12.0 26.0 0.00 0.00 0.00 42 1021.1
20260507213641 57 135 26.0 26.0 0.00 0.00 0.00 42 1021.1
20260507213421 57 135 17.0 25.0 0.00 0.00 0.00 44 1021.1
20260507213147 56 135 25.0 26.0 0.00 0.00 0.00 44 1021.1
20260507212945 56 168 16.0 26.0 0.00 0.00 0.00 45 1021.1
20260507212711 56 135 17.0 21.0 0.00 0.00 0.00 47 1021.1
20260507212208 56 191 14.0 21.0 0.00 0.00 0.00 50 1021.3
20260507211706 56 135 16.0 20.0 0.00 0.00 0.00 50 1021.1
20260507211204 56 135 16.0 20.0 0.00 0.00 0.00 51 1021.1
20260507210701 55 135 15.0 19.0 0.00 0.00 0.00 53 1021.2
20260507210202 55 135 16.0 19.0 0.00 0.00 0.00 53 1021.1
20260507205657 55 180 18.0 21.0 0.00 0.00 0.00 54 1021.1
20260507205155 55 135 20.0 21.0 0.00 0.00 0.00 54 1021.0
20260507205053 55 146 11.0 18.0 0.00 0.00 0.00 55 1021.1
20260507204551 55 168 17.0 22.0 0.00 0.00 0.00 56 1020.9
20260507204048 55 146 15.0 19.0 0.00 0.00 0.00 57 1020.9
20260507203546 55 135 14.0 19.0 0.00 0.00 0.00 58 1020.9
20260507203043 55 146 16.0 21.0 0.00 0.00 0.00 58 1020.7
20260507202542 55 168 17.0 17.0 0.00 0.00 0.00 59 1021.0
20260507202222 55 168 8.0 17.0 0.00 0.00 0.00 59 1021.0
20260507202037 55 146 17.0 17.0 0.00 0.00 0.00 59 1020.9
20260507201534 55 157 12.0 15.0 0.00 0.00 0.00 60 1020.9
20260507201032 55 135 10.0 26.0 0.00 0.00 0.00 60 1020.7
20260507200930 55 135 26.0 26.0 0.00 0.00 0.00 60 1020.7
20260507200748 55 135 10.0 15.0 0.00 0.00 0.00 60 1020.8
20260507200246 55 168 9.0 19.0 0.00 0.00 0.00 60 1020.7
20260507200143 55 135 18.0 18.0 0.00 0.00 0.00 60 1020.6
20260507195841 55 157 9.0 13.0 0.00 0.00 0.00 60 1020.5
20260507195339 55 135 15.0 19.0 0.00 0.00 0.00 60 1020.5
20260507194836 55 135 13.0 18.0 0.00 0.00 0.00 60 1020.3
20260507194338 55 135 13.0 24.0 0.00 0.00 0.00 60 1020.3
20260507193832 56 146 17.0 17.0 0.00 0.00 0.00 60 1020.1
20260507193330 56 135 14.0 17.0 0.00 0.00 0.00 61 1020.3
20260507192829 56 180 12.0 19.0 0.00 0.00 0.00 61 1020.1
20260507192325 56 135 13.0 21.0 0.00 0.00 0.00 61 1020.2
20260507191823 55 135 18.0 20.0 0.00 0.00 0.00 61 1020.0
20260507191320 55 135 17.0 20.0 0.00 0.00 0.00 62 1020.0
20260507191218 55 135 9.0 20.0 0.00 0.00 0.00 62 1020.0
20260507190906 55 135 17.0 18.0 0.00 0.00 0.00 62 1019.9
20260507190404 55 135 17.0 17.0 0.00 0.00 0.00 62 1019.7
20260507190122 55 135 9.0 11.0 0.00 0.00 0.00 62 1019.7
20260507185619 55 135 13.0 14.0 0.00 0.00 0.00 62 1019.6
20260507185117 55 135 10.0 13.0 0.00 0.00 0.00 62 1019.4
20260507184615 55 157 9.0 10.0 0.00 0.00 0.00 62 1019.5
20260507184113 55 135 6.0 8.0 0.00 0.00 0.00 62 1019.5
20260507183613 55 135 7.0 9.0 0.00 0.00 0.00 61 1019.5
20260507183110 55 135 6.0 8.0 0.00 0.00 0.00 61 1019.4
20260507182605 55 135 7.0 7.0 0.00 0.00 0.00 61 1019.4
20260507182103 55 135 6.0 8.0 0.00 0.00 0.00 60 1019.4
20260507181601 55 135 5.0 9.0 0.00 0.00 0.00 60 1019.1
20260507181059 55 135 4.0 7.0 0.00 0.00 0.00 60 1019.2
20260507180558 55 146 6.0 6.0 0.00 0.00 0.00 59 1019.2
20260507180054 56 135 3.0 5.0 0.00 0.00 0.00 59 1019.1
20260507175553 56 135 5.0 7.0 0.00 0.00 0.00 59 1019.2
20260507175050 56 157 4.0 6.0 0.00 0.00 0.00 58 1019.2
20260507174551 56 146 5.0 6.0 0.00 0.00 0.00 58 1019.1
20260507174045 56 135 4.0 8.0 0.00 0.00 0.00 58 1019.0
20260507173542 56 157 6.0 6.0 0.00 0.00 0.00 58 1019.1
20260507173040 56 180 3.0 4.0 0.00 0.00 0.00 58 1019.0
20260507172538 57 146 3.0 5.0 0.00 0.00 0.00 57 1019.0
20260507172036 57 180 3.0 4.0 0.00 0.00 0.00 57 1019.0
20260507171534 57 180 2.0 4.0 0.00 0.00 0.00 57 1019.1
20260507171031 57 135 4.0 5.0 0.00 0.00 0.00 57 1019.2
20260507170529 57 157 2.0 6.0 0.00 0.00 0.00 57 1019.2
20260507170027 58 168 2.0 7.0 0.00 0.00 0.00 57 1019.2
20260507165525 58 180 5.0 8.0 0.00 0.00 0.00 57 1019.1
20260507165022 58 146 8.0 10.0 0.00 0.00 0.00 57 1019.0
20260507164519 58 157 10.0 11.0 0.00 0.00 0.00 57 1019.0
20260507164017 58 180 8.0 10.0 0.00 0.00 0.00 57 1019.0
20260507163515 58 135 8.0 10.0 0.00 0.00 0.00 57 1019.0
20260507163014 58 168 6.0 9.0 0.00 0.00 0.00 58 1019.1
20260507162511 58 157 7.0 9.0 0.00 0.00 0.00 58 1019.0
20260507162009 58 135 6.0 9.0 0.00 0.00 0.00 58 1019.0
20260507161506 58 180 6.0 8.0 0.00 0.00 0.00 58 1019.1
20260507161004 58 157 7.0 9.0 0.00 0.00 0.00 58 1019.0
20260507160502 58 157 9.0 10.0 0.00 0.00 0.00 58 1019.0
20260507155959 58 157 10.0 11.0 0.00 0.00 0.00 58 1019.0
20260507155457 58 135 8.0 9.0 0.00 0.00 0.00 59 1019.0
20260507154954 58 146 8.0 9.0 0.00 0.00 0.00 59 1019.0
20260507154454 59 157 7.0 8.0 0.00 0.00 0.00 59 1019.0
20260507153950 59 157 7.0 9.0 0.00 0.00 0.00 59 1018.9
20260507153448 59 135 6.0 8.0 0.00 0.00 0.00 59 1018.9
20260507152946 59 157 6.0 8.0 0.00 0.00 0.00 59 1018.9
20260507152443 59 146 4.0 10.0 0.00 0.00 0.00 59 1019.0
20260507151941 59 180 5.0 9.0 0.00 0.00 0.00 59 1019.1
20260507151439 59 168 7.0 9.0 0.00 0.00 0.00 59 1019.0
20260507150940 60 157 7.0 8.0 0.00 0.00 0.00 59 1018.9
20260507150435 60 157 4.0 8.0 0.00 0.00 0.00 59 1019.0
20260507145932 60 135 6.0 8.0 0.00 0.00 0.00 59 1018.9
20260507145429 60 157 6.0 8.0 0.00 0.00 0.00 59 1019.0
20260507144930 60 168 5.0 10.0 0.00 0.00 0.00 59 1018.9
20260507144426 60 135 8.0 10.0 0.00 0.00 0.00 59 1018.8
20260507143923 60 135 8.0 10.0 0.00 0.00 0.00 59 1018.8
20260507143421 60 157 8.0 12.0 0.00 0.00 0.00 59 1018.8
20260507142918 60 135 7.0 11.0 0.00 0.00 0.00 59 1018.8
20260507142416 60 135 7.0 9.0 0.00 0.00 0.00 60 1018.9
20260507141913 61 135 8.0 8.0 0.00 0.00 0.00 60 1018.9
20260507141411 61 157 10.0 10.0 0.00 0.00 0.00 60 1018.9
20260507140910 61 168 7.0 9.0 0.00 0.00 0.00 60 1018.9
20260507140408 61 146 8.0 10.0 0.00 0.00 0.00 60 1018.9
20260507135905 61 135 7.0 9.0 0.00 0.00 0.00 61 1018.9
20260507135402 61 180 9.0 9.0 0.00 0.00 0.00 61 1018.9
20260507134902 61 135 10.0 10.0 0.00 0.00 0.00 61 1019.0
20260507134358 61 168 9.0 10.0 0.00 0.00 0.00 62 1019.2
20260507133855 61 135 6.0 9.0 0.00 0.00 0.00 63 1019.0
20260507133353 61 157 5.0 7.0 0.00 0.00 0.00 63 1019.2
20260507132851 61 135 6.0 7.0 0.00 0.00 0.00 63 1019.1
20260507132348 62 157 4.0 7.0 0.00 0.00 0.00 62 1019.1
20260507131846 62 135 6.0 8.0 0.00 0.00 0.00 62 1019.2
20260507131343 62 135 5.0 7.0 0.00 0.00 0.00 62 1019.1
20260507130841 62 180 5.0 7.0 0.00 0.00 0.00 62 1019.2
20260507130339 62 135 4.0 6.0 0.00 0.00 0.00 62 1019.1
20260507125837 62 135 5.0 6.0 0.00 0.00 0.00 62 1019.1
20260507125335 62 135 4.0 6.0 0.00 0.00 0.00 62 1019.1
20260507124833 62 180 5.0 6.0 0.00 0.00 0.00 62 1019.1
20260507124330 62 180 6.0 7.0 0.00 0.00 0.00 62 1019.1
20260507123828 62 157 3.0 5.0 0.00 0.00 0.00 63 1019.2
20260507123325 62 180 6.0 6.0 0.00 0.00 0.00 63 1019.2
20260507122826 63 157 3.0 5.0 0.00 0.00 0.00 63 1019.3
20260507122321 63 135 4.0 4.0 0.00 0.00 0.00 63 1019.2
20260507121818 63 157 4.0 4.0 0.00 0.00 0.00 63 1019.3
20260507121316 63 180 3.0 5.0 0.00 0.00 0.00 62 1019.5
20260507120816 63 157 4.0 5.0 0.00 0.00 0.00 63 1019.6
20260507120312 63 191 3.0 4.0 0.00 0.00 0.00 63 1019.6
20260507115810 63 180 3.0 3.0 0.00 0.00 0.00 62 1019.5
20260507115307 63 180 3.0 3.0 0.00 0.00 0.00 62 1019.4
20260507114805 64 180 2.0 3.0 0.00 0.00 0.00 62 1019.4
20260507114302 64 157 2.0 3.0 0.00 0.00 0.00 62 1019.4
20260507113800 64 168 3.0 3.0 0.00 0.00 0.00 62 1019.3
20260507113258 64 180 1.0 3.0 0.00 0.00 0.00 62 1019.3
20260507112755 64 180 2.0 3.0 0.00 0.00 0.00 62 1019.4
20260507112253 64 157 1.0 3.0 0.00 0.00 0.00 62 1019.3
20260507111751 65 180 2.0 4.0 0.00 0.00 0.00 61 1019.4
20260507111249 65 180 2.0 3.0 0.00 0.00 0.00 61 1019.4
20260507110747 65 180 2.0 3.0 0.00 0.00 0.00 61 1019.4
20260507110245 65 180 1.0 3.0 0.00 0.00 0.00 61 1019.3